[[{"header":{"parameterUnit":"m.s-1","parameterCategory":1,"la1":30.2991,"la2":30.254,"lo1":-89.0895,"lo2":-89.0444,"dy":0.0017,"dx":0.0017,"nx":28,"ny":28,"refTime":"2024-04-16T03:00:00:Z","depth":0,"parameterNumber":2,"parameterNumberName":"U-component_of_WINDS"},"data":[0,0,0,0,0,0,0,0,0,0,0,0,0,0,0,0,0,0,0,0,0,0,0,0,0,0,0,0,0,0,0,0,0,0,0,0,0,0,0,0,0,0,0,0,0,0,0,0,0,0,0,0,0,0,0,0,0,0,-1.9844,-1.9843,0,-1.9767,-1.9766,-1.9765,-1.9689,-1.9688,-1.9687,-1.9686,-1.9608,-1.9607,-1.9605,0,0,0,0,0,0,0,0,0,0,0,0,0,-1.9925,-1.9924,-1.9844,-1.9843,-1.9842,-1.9767,-1.9766,-1.9765,-1.9689,-1.9688,-1.9687,-1.9686,-1.9608,-1.9607,-1.9605,0,0,0,0,0,0,0,0,0,0,0,0,0,-1.9873,-1.9924,-1.9844,-1.9795,-1.979,-1.9767,-1.9766,-1.9765,-1.969,-1.9688,-1.9687,-1.9685,-1.9609,-1.9607,-1.9605,-1.9624,0,0,-1.96,-1.9599,0,0,0,0,0,0,0,0,-1.9876,-1.987,-1.9803,-1.9798,-1.9793,-1.9736,-1.9766,-1.9718,-1.969,-1.9728,-1.9686,-1.9685,-1.9652,-1.9646,-1.9635,-1.9621,-1.9617,-1.96,-1.9599,-1.9598,-1.9597,0,0,0,0,0,0,0,-1.988,-1.9873,-1.9813,-1.9802,-1.9796,-1.9777,-1.9768,-1.9756,-1.9699,-1.9724,-1.9719,-1.9711,-1.9648,-1.9637,-1.9633,-1.9616,-1.96,-1.9598,-1.9597,-1.9596,-1.9613,-1.9615,0,0,0,0,0,0,-1.9891,-1.9877,-1.9816,-1.9811,-1.9832,-1.9777,-1.9767,-1.9756,-1.9699,-1.9689,-1.9712,-1.9707,-1.9641,-1.9635,-1.963,-1.9648,-1.9598,-1.9596,-1.9595,-1.9612,-1.9614,-1.9615,0,0,0,0,0,0,-1.9893,-1.9886,-1.9819,-1.9842,-1.9832,-1.9777,-1.9765,-1.9755,-1.9743,-1.969,-1.9679,-1.9711,-1.9639,-1.9632,-1.9626,-1.9644,-1.9595,-1.9594,-1.961,-1.9612,-1.9614,-1.9686,0,0,0,0,0,0,-1.9896,-1.9887,-1.9894,-1.9843,-1.9831,-1.9817,-1.9766,-1.9755,-1.9741,-1.9734,-1.9686,-1.9676,-1.9638,-1.9629,-1.9625,-1.9641,-1.9593,-1.9608,-1.9611,-1.9614,-1.9682,-1.969,-1.9698,0,0,0,0,0,-1.9899,-1.9918,-1.9895,-1.9888,-1.9839,-1.9818,-1.9811,-1.9767,-1.9743,-1.9749,-1.9714,-1.9678,-1.9643,-1.9629,-1.9623,-1.964,-1.9607,-1.961,-1.9614,-1.9678,-1.9689,-1.9698,0,0,0,0,0,0,-1.9972,-1.991,-1.9884,-1.9887,-1.9858,-1.9805,-1.9812,-1.9779,-1.9757,-1.9752,-1.9697,-1.9687,-1.9687,-1.9663,-1.9648,-1.9655,-1.962,-1.9622,-1.9671,-1.9681,-1.9689,-1.9694,-1.9591,0,0,0,0,0,-1.9989,-1.9978,-1.9923,-1.9931,-1.9918,-1.9868,-1.9857,-1.9825,-1.9793,-1.9781,-1.9746,-1.9716,-1.9699,-1.9688,-1.9669,-1.9678,-1.9666,-1.9686,-1.9694,-1.9701,-1.9704,-1.9706,-1.9715,-1.9626,-1.9626,-1.9626,0,0,-2.0023,-1.9987,-1.9984,-1.9945,-1.9919,-1.9908,-1.9858,-1.9849,-1.984,-1.9779,-1.9772,-1.9745,-1.9708,-1.971,-1.9709,-1.969,-1.9726,-1.9705,-1.9711,-1.971,-1.9711,-1.9719,-1.9727,-1.9629,-1.9628,-1.9628,0,0,-2.008,-2.0052,-2.0055,-2.003,-1.9991,-1.9958,-1.9959,-1.991,-1.989,-1.9882,-1.9835,-1.9825,-1.9796,-1.9771,-1.9755,-1.9803,-1.9769,-1.9798,-1.984,-1.9844,-1.985,-1.9856,-1.9873,-1.988,-1.9801,-1.9801,-1.9801,0,-2.0127,-2.0109,-2.006,-2.0054,-2.0038,-1.9983,-1.9985,-1.9963,-1.9921,-1.9911,-1.9891,-1.9853,-1.9824,-1.9819,-1.9831,-1.982,-1.9819,-1.9804,-1.9853,-1.9859,-1.9864,-1.9879,-1.9886,-1.9805,-1.9805,-1.9804,-1.9804,0,-2.0169,-2.0157,-2.0164,-2.0124,-2.0109,-2.0108,-2.0059,-2.005,-2.0019,-1.9988,-1.998,-1.9944,-1.9916,-1.9913,-1.9882,-1.9903,-1.9893,-1.9864,-1.9827,-1.9877,-1.989,-1.9896,-1.9811,-1.9809,-1.9808,-1.9807,0,0,-2.027,-2.0203,-2.0206,-2.0188,-2.0141,-2.0131,-2.0127,-2.01,-2.0093,-2.0065,-2.006,-2.0037,-2.001,-1.9992,-1.9958,-1.9961,-2.0001,-1.9931,-1.993,-1.9946,-2.0022,-2.0044,-2.0052,-1.9978,-1.9979,-1.998,-2.0025,0,-2.0318,-2.0307,-2.0264,-2.0266,-2.0254,-2.0201,-2.0197,-2.0168,-2.0139,-2.0125,-2.0092,-2.0077,-2.0042,-2.003,-2.0031,-1.9996,-2.0016,-1.9992,-1.9973,-1.9973,-1.9984,-2.0059,-2.0083,-2.0127,-2.003,-2.0031,-2.0031,0,-2.0374,-2.035,-2.0351,-2.0304,-2.0298,-2.0295,-2.0267,-2.0254,-2.022,-2.0198,-2.0179,-2.0141,-2.0134,-2.01,-2.0089,-2.0074,-2.0063,-2.0045,-2.0046,-2.0042,-2.0005,-2.0058,-2.014,-2.0147,-2.0039,-2.0039,-2.0038,0,-2.0448,-2.0415,-2.0412,-2.0397,-2.0343,-2.0342,-2.032,-2.0284,-2.0271,-2.0246,-2.0237,-2.0212,-2.0198,-2.0179,-2.0136,-2.0115,-2.013,-2.0092,-2.0112,-2.0113,-2.0117,-2.0118,-2.0199,-2.0111,-2.0111,-2.0111,-2.011,0,-2.0507,-2.051,-2.0444,-2.0442,-2.0443,-2.0393,-2.0396,-2.0368,-2.0337,-2.0328,-2.028,-2.0273,-2.0217,-2.0203,-2.0169,-2.0165,-2.016,-2.0142,-2.0133,-2.0146,-2.0149,-2.0139,-2.0135,-2.0112,-2.0112,-2.0112,-2.0111,0,-2.059,-2.0546,-2.0538,-2.0487,-2.0474,-2.0478,-2.0434,-2.043,-2.0397,-2.0387,-2.0382,-2.0331,-2.0313,-2.0268,-2.0238,-2.0215,-2.022,-2.0203,-2.0231,-2.0226,-2.0248,-2.0246,-2.0326,-2.0334,-2.0241,-2.0242,-2.0242,0,-2.063,-2.0631,-2.058,-2.0571,-2.055,-2.0536,-2.0522,-2.0472,-2.0459,-2.0421,-2.0421,-2.0399,-2.0379,-2.0352,-2.0312,-2.0289,-2.0271,-2.0301,-2.0268,-2.0281,-2.0272,-2.0272,-2.0272,-2.0308,-2.031,-2.0311,-2.0311,0,-2.0707,-2.0686,-2.0667,-2.0641,-2.0626,-2.0603,-2.0578,-2.0573,-2.0517,-2.0505,-2.0486,-2.047,-2.0439,-2.0417,-2.0388,-2.0364,-2.0329,-2.0322,-2.0325,-2.0339,-2.0356,-2.0347,-2.0252,-2.0321,-2.032,-2.0319,-2.0319,-2.0318,-2.077,-2.0768,-2.0732,-2.0713,-2.0689,-2.0666,-2.066,-2.0626,-2.0609,-2.058,-2.0551,-2.0535,-2.0501,-2.0457,-2.0436,-2.0422,-2.0404,-2.0409,-2.041,-2.0412,-2.0418,-2.0358,-2.0417,-2.0417,-2.0416,-2.0416,-2.0416,0,-2.0845,-2.0819,-2.0802,-2.0768,-2.0753,-2.072,-2.069,-2.068,-2.0666,-2.0637,-2.0618,-2.0595,-2.0574,-2.0533,-2.0508,-2.0505,-2.0488,-2.05,-2.05,-2.0495,-2.0436,-2.0436,-2.0515,-2.0515,-2.0514,-2.0514,-2.0514,-2.0514,-2.0882,-2.0877,-2.0851,-2.0834,-2.0807,-2.0791,-2.0777,-2.0755,-2.0732,-2.0709,-2.0691,-2.0664,-2.063,-2.0602,-2.0581,-2.057,-2.0563,-2.058,-2.0564,-2.0509,-2.05,-2.0491,-2.049,-2.0579,-2.0579,-2.0624,-2.0625,-2.0625]},{"header":{"parameterUnit":"m.s-1","parameterCategory":1,"la1":30.2991,"la2":30.254,"lo1":-89.0895,"lo2":-89.0444,"dy":0.0017,"dx":0.0017,"nx":28,"ny":28,"refTime":"2024-04-16T03:00:00:Z","depth":0,"parameterNumber":3,"parameterNumberName":"V-component_of_WINDS"},"data":[0,0,0,0,0,0,0,0,0,0,0,0,0,0,0,0,0,0,0,0,0,0,0,0,0,0,0,0,0,0,0,0,0,0,0,0,0,0,0,0,0,0,0,0,0,0,0,0,0,0,0,0,0,0,0,0,0,0,4.1307,4.1307,0,4.1317,4.1317,4.1317,4.1266,4.1264,4.1263,4.1261,4.127,4.1272,4.1273,0,0,0,0,0,0,0,0,0,0,0,0,0,4.1242,4.1243,4.1307,4.1307,4.1307,4.1317,4.1317,4.1317,4.1266,4.1264,4.1262,4.1261,4.1269,4.1271,4.1273,0,0,0,0,0,0,0,0,0,0,0,0,0,4.1263,4.1244,4.1307,4.1283,4.128,4.1317,4.1317,4.1317,4.1266,4.1264,4.1262,4.126,4.1269,4.1271,4.1274,4.1333,0,0,4.1281,4.1282,0,0,0,0,0,0,0,0,4.1262,4.1265,4.1286,4.1284,4.1282,4.1288,4.1297,4.1323,4.1267,4.1272,4.1261,4.1259,4.1278,4.1279,4.1286,4.1334,4.1334,4.1281,4.1283,4.1284,4.1284,0,0,0,0,0,0,0,4.126,4.1264,4.1311,4.1286,4.1284,4.1271,4.1271,4.1302,4.1287,4.1271,4.1267,4.1269,4.1276,4.1284,4.1286,4.1334,4.1281,4.1283,4.1285,4.1286,4.1433,4.1435,0,0,0,0,0,0,4.1262,4.1264,4.131,4.1311,4.1266,4.1274,4.1275,4.1288,4.1286,4.1284,4.1271,4.1267,4.1281,4.1283,4.1286,4.1357,4.1284,4.1286,4.1287,4.143,4.1433,4.1436,0,0,0,0,0,0,4.1261,4.1267,4.131,4.1286,4.1291,4.1277,4.1293,4.129,4.1297,4.1287,4.1284,4.1282,4.1279,4.1282,4.1322,4.1356,4.1287,4.1289,4.1427,4.1431,4.1435,4.1498,0,0,0,0,0,0,4.1259,4.1267,4.1289,4.1287,4.1292,4.1347,4.1295,4.1291,4.1302,4.1296,4.1296,4.1294,4.1278,4.1319,4.1325,4.1358,4.1291,4.1424,4.1429,4.1433,4.1493,4.1504,4.1513,0,0,0,0,0,4.1257,4.1306,4.1291,4.1297,4.132,4.1349,4.1351,4.1332,4.1305,4.1327,4.1321,4.1294,4.1352,4.1323,4.1329,4.1364,4.1422,4.1428,4.1433,4.1489,4.1502,4.1512,0,0,0,0,0,0,4.1311,4.1305,4.1288,4.1338,4.1344,4.134,4.1368,4.1346,4.136,4.1355,4.133,4.133,4.1375,4.1373,4.1342,4.1423,4.1382,4.1389,4.1422,4.1434,4.1444,4.1444,4.1293,0,0,0,0,0,4.1329,4.1353,4.1346,4.1391,4.1395,4.1381,4.1392,4.1378,4.1383,4.1385,4.1381,4.1387,4.1407,4.142,4.1438,4.1493,4.1492,4.152,4.1529,4.1538,4.1544,4.1574,4.1587,4.1454,4.1454,4.1454,0,0,4.1366,4.1365,4.1382,4.1402,4.1405,4.143,4.1383,4.1412,4.143,4.1389,4.1427,4.1425,4.143,4.1478,4.1499,4.1478,4.1581,4.1545,4.1551,4.1553,4.1581,4.1594,4.1605,4.1458,4.1457,4.1456,0,0,4.1446,4.1448,4.1486,4.1491,4.1497,4.1487,4.1497,4.1496,4.1493,4.1531,4.1501,4.1523,4.1557,4.1562,4.1569,4.1654,4.163,4.166,4.1711,4.1741,4.1752,4.1761,4.1792,4.1803,4.1666,4.1666,4.1667,0,4.149,4.1528,4.1508,4.1539,4.1549,4.1514,4.1553,4.1558,4.1569,4.1577,4.1554,4.1597,4.1598,4.1647,4.1668,4.1675,4.1685,4.166,4.1752,4.1761,4.1769,4.1799,4.181,4.167,4.167,4.1669,4.1669,0,4.1583,4.161,4.164,4.1653,4.1667,4.1701,4.1686,4.1702,4.1687,4.168,4.172,4.1719,4.1737,4.1747,4.1732,4.1795,4.1783,4.1756,4.1715,4.1786,4.1813,4.1824,4.1676,4.1674,4.1673,4.1672,0,0,4.1697,4.17,4.1711,4.1718,4.1723,4.1743,4.1776,4.1794,4.1809,4.1818,4.1846,4.1877,4.1853,4.1861,4.1846,4.1872,4.194,4.1842,4.1842,4.1861,4.2012,4.2032,4.2046,4.1924,4.1926,4.1928,4.2012,0,4.1776,4.1835,4.1818,4.1876,4.1901,4.1869,4.1899,4.1905,4.19,4.192,4.1914,4.1937,4.1903,4.1908,4.1932,4.1927,4.197,4.192,4.195,4.1952,4.1951,4.206,4.2081,4.216,4.2022,4.2024,4.2025,0,4.1877,4.1892,4.1953,4.1956,4.1965,4.1992,4.2008,4.2028,4.2035,4.2029,4.204,4.2019,4.2053,4.2011,4.2057,4.2023,4.2035,4.2034,4.2037,4.2039,4.1993,4.2066,4.2185,4.2197,4.2042,4.204,4.2039,0,4.1955,4.199,4.2032,4.2038,4.2042,4.2062,4.2064,4.2068,4.2081,4.2095,4.2103,4.212,4.213,4.2144,4.2129,4.21,4.2178,4.2134,4.2174,4.2175,4.2192,4.2192,4.2316,4.2199,4.2198,4.2198,4.2198,0,4.2046,4.2085,4.2067,4.2093,4.2136,4.2117,4.216,4.2158,4.2163,4.2188,4.2161,4.2185,4.2163,4.2185,4.2174,4.2214,4.2218,4.2215,4.2212,4.2218,4.2219,4.2226,4.222,4.2201,4.2201,4.22,4.22,0,4.2141,4.2131,4.2174,4.2175,4.2176,4.2208,4.2208,4.2232,4.2225,4.2257,4.2263,4.2253,4.2278,4.2265,4.2289,4.2282,4.2335,4.2323,4.2333,4.233,4.2371,4.2368,4.2505,4.2522,4.2393,4.2394,4.2395,0,4.22,4.223,4.2234,4.2249,4.2254,4.2279,4.2292,4.2274,4.2289,4.23,4.2323,4.2345,4.2363,4.2404,4.2398,4.2417,4.2407,4.2453,4.2409,4.2416,4.2409,4.2408,4.2411,4.2462,4.2464,4.2465,4.2466,0,4.2306,4.23,4.2321,4.2341,4.2358,4.2372,4.2383,4.2397,4.238,4.2398,4.2424,4.2437,4.2464,4.2487,4.2504,4.2506,4.2484,4.248,4.2491,4.2498,4.2503,4.2502,4.2358,4.2477,4.2476,4.2475,4.2475,4.2474,4.2386,4.2411,4.2419,4.2443,4.2451,4.2463,4.2486,4.2483,4.2504,4.2525,4.2513,4.2544,4.2551,4.2572,4.2577,4.26,4.2581,4.2596,4.26,4.2604,4.2611,4.2499,4.2603,4.2603,4.2602,4.2602,4.2602,0,4.2492,4.2496,4.2518,4.2537,4.2556,4.2535,4.2547,4.2564,4.2592,4.2601,4.2619,4.2649,4.2671,4.2668,4.2689,4.2709,4.2699,4.2715,4.2713,4.2715,4.2625,4.2615,4.2722,4.2722,4.2722,4.2722,4.2722,4.2722,4.2549,4.2592,4.2587,4.2634,4.2637,4.2667,4.2676,4.2688,4.2695,4.273,4.2749,4.2748,4.2752,4.2773,4.2793,4.2791,4.2801,4.282,4.2815,4.2732,4.2721,4.2709,4.2699,4.2822,4.2822,4.2902,4.2903,4.2904]}]]